Aérodrome :
LOGIN :

S'inscrire | Disclaimer

   EN    FR    IT 

 










Légende :    VFR   VFR Marginal   IFR   IFR Intensif   IFR Très Intensif
Visi : 
Plafond : 
>= 8 km
>= 3000ft
5 à 8 km
1000 à 3000 ft
1500m à 5 km
500 à 1000 ft
800 à 1500m
200 à 500 ft
< 800m
< 200 ft
Symboles :   Orages  Brouillard  Fortes neiges  Fortes précipitations  Vent > 20 kt
SIGMETs :   Divers  Orages  Givrage  Turbulence  Onde Orograph.  Cendres Volcan.






- Altitude de l'aérodrome : 49 ft
- Code IATA : SEN


EGMC - Southend

DERNIER METAR :
  • 230150Z 22008KT 9999 FEW014 15/14 Q1004

METARs EXPIRÉS :
  • 230050Z 21007KT 9999 FEW031 15/14 Q1004
  • 222350Z 21009KT 9999 SCT031 16/14 Q1004
  • 222320Z 21010KT 9999 FEW025 BKN028 16/14 Q1005

TAF TAF EGMC
Valide du 23 à 00h jusqu'au 23 à 09h UTC


222256Z 2300/2309 22009KT 9999 FEW030
PROB40
TEMPO 2300/2303 6000 BKN010
PROB30
TEMPO 2303/2307 6000 SHRA BKN010



MET'MAP, la Météo Aéronautique d'un coup d'oeil ! - Copyright ORBIFLY Décembre 2007 - Disclaimer

ORBIFLY MET'MAP TEAM :

Programmation & Développement : Alexandra Zaïnal
Sur une idée originale de : Baudouin d'Aumeries
Assistance à la programmation : Marc-Olivier Méhu
Soutien technique & logistique : Manuel Goepfert

Contact : metmap@orbifly.com




SOURCES & CREDITS :

   NOAA